User: anonymous   Login
Location: Kelshall
(52.0000°N, 0.0500°W)
Time: 01:10:58
(UTC+00:00)
Language:

Cosmos 1975 - Orbit

View from above orbital plane
View from above orbital plane
View from above satellite
View from above satellite

Ground track
Ground track

The orbit data is extracted from the following two-line orbital elements,

1 19573U 88093A   20336.37904503 +.00001379 +00000-0 +95109-4 0  9996
2 19573 082.5208 202.4845 0013419 319.4733 040.5493 15.04994510728612
Epoch (UTC): 01 December 2020 09:05:49
Eccentricity: 0.0013419
inclination: 82.5208°
perigee height: 542 km
apogee height: 561 km
right ascension of ascending node: 202.4845°
argument of perigee: 319.4733°
revolutions per day: 15.04994510
mean anomaly at epoch: 40.5493°
orbit number at epoch: 72861

The dashed part of the orbit path shows where the satellite is in the earth's shadow,  

DLR